Dewpoint
36 44 53 55 54 53 54 54 55 55 55 54 56 57 58 58 58 58 55 56 57 58 59 60 60 60 58 60 60 61 63 62 59 62 64 63 64 62 62 64 66 65 69
32 34 54 54 53 53 54 54 55 54 53 54 56 57 57 58 57 54 55 54 57 55 58 54 58 60 59 58 58 58 61 62 62 62 62 61 61 61 60 62 63 64 68
29 34 45 52 53 53 53 53 53 53 57 57 56 55 57 55 53 54 53 54 53 55 56 55 55 54 55 58 58 55 59 59 60 60 59 54 55 60 62 61 62 64 66
26 36 44 51 51 52 53 53 52 55 55 56 55 54 53 53 53 53 54 53 53 54 54 54 54 54 54 58 57 57 58 59 59 59 52 52 53 57 60 63 62 64 64
28 35 43 49 50 51 52 52 52 52 53 52 53 52 53 53 53 53 53 53 53 53 53 53 53 54 54 53 53 53 55 56 55 53 50 50 52 53 57 58 60 62 64
28 30 42 47 48 49 52 51 52 51 52 52 52 52 52 51 51 51 52 52 52 52 52 52 52 53 53 53 53 54 53 56 53 47 47 49 49 53 56 57 57 59 61
29 28 34 42 46 48 51 52 52 52 51 50 50 51 50 49 49 49 50 50 51 51 51 51 51 51 52 52 52 52 52 52 47 45 44 45 47 52 54 54 56 58 59
27 28 30 36 39 43 47 48 49 49 49 49 48 48 47 45 44 46 46 48 50 50 50 50 50 50 51 51 51 51 50 50 45 44 43 42 45 48 50 53 54 55 57
27 28 30 31 34 38 40 45 45 46 46 46 45 44 45 41 40 44 44 45 48 49 49 49 49 49 49 50 50 48 47 48 43 43 41 37 43 46 49 52 53 54 55
28 29 29 30 32 34 33 42 40 41 41 41 43 43 43 41 41 42 42 43 45 47 48 47 47 47 48 47 46 46 46 44 37 35 36 36 43 45 49 51 52 53 54
28 28 30 31 32 34 32 36 38 39 41 40 40 42 39 34 34 36 40 43 44 45 45 46 46 46 45 43 44 44 43 36 34 35 36 41 44 47 49 50 51 52 53
27 28 30 32 33 34 32 34 35 34 37 36 36 35 36 33 34 35 38 42 43 44 43 45 46 44 41 36 36 40 35 34 34 34 34 43 45 47 49 50 50 51 52
27 31 30 32 34 33 34 35 36 36 36 37 35 36 36 34 34 34 35 36 38 41 38 38 38 36 34 34 35 34 34 33 33 33 35 42 44 46 48 49 50 50 51
26 29 31 33 34 33 34 34 34 34 36 34 36 36 35 36 34 33 35 36 38 38 37 37 37 36 35 35 34 33 32 32 32 32 35 41 44 46 48 48 49 49 50
22 26 30 32 34 34 33 35 35 35 33 34 34 34 34 34 33 33 34 36 37 38 37 37 37 36 36 36 35 34 33 32 32 33 36 41 42 45 47 49 49 49 49
22 25 27 30 34 34 34 34 35 33 33 34 34 33 32 32 32 34 35 36 36 37 36 36 36 36 36 36 35 35 34 34 35 34 35 37 42 43 45 47 49 49 50
22 24 29 30 32 33 33 34 35 33 34 34 33 32 30 32 34 34 35 36 37 38 38 37 37 38 36 35 35 35 35 35 36 36 36 36 38 42 44 45 48 49 50
29 24 27 30 30 31 32 32 33 32 34 33 33 33 31 33 34 35 36 35 37 37 38 38 37 37 39 36 35 36 37 36 35 37 37 36 38 37 41 45 47 49 49
24 23 27 29 30 31 31 31 30 31 32 33 33 33 31 33 34 34 35 35 36 36 37 37 38 39 39 38 37 37 37 37 36 37 38 36 36 39 40 43 46 48 48
27 25 27 30 30 31 32 30 30 32 32 33 34 33 32 33 34 34 35 34 35 35 35 36 35 37 38 38 38 38 37 37 35 37 36 36 36 39 40 39 41 42 48
27 27 28 30 31 32 32 30 30 31 32 33 34 33 33 33 34 34 35 34 34 33 33 33 34 35 37 38 38 36 36 35 34 35 36 36 36 39 39 39 41 42 44
25 27 29 31 31 32 33 32 32 32 34 33 34 33 34 32 34 34 34 34 33 33 32 34 34 35 36 37 36 35 32 35 36 35 36 36 35 38 39 38 41 43 44
25 26 28 31 31 31 31 32 33 34 36 35 34 34 35 33 34 35 35 35 34 35 34 32 33 34 35 35 34 37 34 33 35 35 35 36 36 37 39 41 43 44 46
27 28 28 31 31 30 31 32 31 32 32 34 34 34 35 33 33 34 35 35 34 35 34 34 33 34 37 33 34 33 36 35 34 32 35 35 37 37 40 43 43 44 45
28 30 29 32 33 33 33 32 33 33 34 34 35 34 35 34 33 33 35 35 35 35 34 34 34 33 32 31 33 32 33 35 35 36 33 32 35 36 41 43 42 43 43
29 31 32 32 33 33 33 34 34 35 35 35 35 35 35 35 35 34 34 35 36 36 36 36 34 33 33 31 31 31 33 35 36 36 34 33 36 37 39 42 40 41 42
Lifted_Index
15 14 12 11 11 11 11 11 11 10 10 10 10 10 10 10 10 11 12 12 11 11 11 10 10 10 10 10 9 9 8 8 8 7 7 7 6 6 5 5 4 3 2
16 15 12 11 11 11 11 11 11 10 10 10 10 9 9 10 10 11 12 12 11 11 11 11 11 11 11 10 10 10 9 8 8 8 8 8 7 7 6 5 5 4 3
16 15 13 12 12 11 11 11 11 10 10 10 10 10 10 10 11 11 12 11 11 11 11 11 12 11 11 11 11 11 10 9 9 9 10 10 9 8 7 6 6 5 5
16 16 14 13 12 12 11 11 11 10 10 10 10 11 11 11 12 12 12 12 12 12 12 12 12 12 12 11 11 12 11 11 11 11 11 12 11 10 9 8 7 6 6
17 16 15 14 13 12 11 11 11 11 11 11 11 12 12 12 13 13 12 12 12 12 12 12 12 12 12 12 12 12 12 12 12 13 13 13 13 12 11 10 9 7 7
17 17 16 15 14 13 12 11 11 11 12 12 12 13 13 14 14 14 14 14 14 13 13 13 13 13 13 13 13 13 13 13 14 15 16 15 14 14 13 12 11 10 8
17 17 16 16 15 14 13 12 12 12 13 13 13 14 14 15 15 15 15 15 15 15 15 15 15 15 14 14 14 14 14 15 16 17 17 17 16 15 14 13 12 11 11
17 17 17 16 15 14 14 13 13 13 13 13 13 14 14 15 15 15 15 15 15 15 15 15 15 15 15 16 16 16 16 16 17 18 18 18 17 16 15 14 14 13 12
16 16 16 16 15 14 14 13 13 13 13 13 13 13 13 14 14 14 14 14 14 14 14 14 15 15 15 16 16 17 17 18 18 19 19 19 18 17 16 15 14 14 13
15 15 15 15 14 14 14 13 13 13 13 13 13 13 13 13 13 13 13 13 13 13 13 13 13 13 14 15 16 16 17 18 19 20 20 20 18 17 16 16 15 14 14
14 14 14 14 14 14 13 13 13 13 13 13 13 13 14 14 14 14 14 13 13 13 13 13 13 13 14 14 15 15 16 17 18 19 19 19 18 17 16 16 15 15 15
14 14 14 14 14 14 14 13 13 13 14 14 14 14 15 15 15 15 14 14 14 13 14 14 14 14 15 15 15 15 16 16 17 17 18 17 17 17 16 16 16 16 15
14 14 14 14 14 14 14 14 14 14 14 14 14 15 15 15 15 15 15 15 14 14 14 15 15 15 16 16 16 16 16 16 16 16 16 16 15 15 16 16 16 16 16
14 14 14 14 14 14 14 14 14 14 14 15 15 15 15 15 15 15 15 15 15 15 15 16 16 16 16 16 16 16 16 16 16 16 16 15 15 14 15 15 15 16 16
15 15 15 14 14 14 14 14 14 14 15 15 15 15 15 16 16 15 15 15 15 16 16 16 16 16 16 16 16 16 15 15 15 15 15 15 15 14 14 14 14 15 15
15 15 15 15 14 14 14 14 14 15 15 15 15 15 15 16 15 15 15 15 15 15 16 16 16 16 16 16 16 16 15 15 15 15 15 15 15 14 14 14 14 14 14
15 15 15 15 15 14 14 14 15 15 15 15 15 15 15 16 15 15 14 14 15 15 15 15 15 15 15 15 15 15 15 15 15 15 15 14 14 14 14 14 14 14 14
15 15 15 15 15 14 14 14 15 15 15 15 15 15 16 16 16 15 15 15 15 15 15 15 15 14 14 14 14 14 14 14 14 13 13 12 12 12 12 12 13 14 14
16 16 16 15 15 15 15 15 15 15 15 15 15 16 16 16 16 16 16 16 16 16 16 15 15 15 14 14 13 13 13 13 12 12 11 10 10 10 10 10 11 12 12
17 17 17 16 15 16 16 16 16 16 16 16 16 16 16 16 16 16 16 16 16 16 16 16 16 16 15 14 13 13 12 12 11 10 10 9 9 9 9 9 10 10 10
18 17 17 16 16 16 16 17 16 16 16 16 16 16 17 17 17 16 16 16 16 16 16 16 16 16 16 15 14 13 12 11 11 10 9 9 9 9 9 9 9 9 9
18 17 17 16 17 17 17 17 17 17 16 16 16 16 17 17 17 16 16 16 16 16 16 16 16 16 16 15 15 14 12 11 10 10 10 10 9 9 9 8 8 7 7
17 17 17 17 17 17 18 17 17 16 16 16 16 16 17 17 17 16 16 16 16 16 15 15 15 15 15 15 15 14 13 12 11 10 10 10 9 8 8 7 6 5 5
17 18 17 17 17 18 18 17 17 16 16 16 16 16 16 16 17 16 16 16 16 15 15 15 15 15 15 14 14 13 13 12 11 10 10 9 9 8 6 5 4 3 3
17 18 18 17 17 18 18 17 17 17 17 16 16 16 16 16 16 16 16 15 15 15 15 14 14 14 14 14 13 13 12 11 11 10 9 9 8 7 6 4 3 3 2
17 18 18 17 17 18 18 18 17 17 17 17 16 16 16 16 16 16 16 15 15 15 14 14 14 14 13 13 13 12 12 11 10 10 9 9 8 6 5 4 3 3 2